GW5721 Weather Reports


time (UTC)temp
C
wind
direction
speed
KPH
gust
KPH
rain 1hr
cm
rain 24hr
cm
rain mn
cm
humidity
%
barometer
mb
20260906194411 40 58 1.6 1.6 0.00 0.00 0.00 33 1011.4
20260906193907 40 51 4.8 4.8 0.00 0.00 0.00 34 1011.4
20260906193401 40 59 1.6 1.6 0.00 0.00 0.00 35 1011.5
20260906192857 40 59 1.6 1.6 0.00 0.00 0.00 34 1011.6
20260906192356 40 63 1.6 1.6 0.00 0.00 0.00 35 1011.6
20260906191855 40 66 0.0 1.6 0.00 0.00 0.00 34 1011.6
20260906191350 40 126 4.8 4.8 0.00 0.00 0.00 34 1011.5
20260906190850 40 140 1.6 1.6 0.00 0.00 0.00 33 1011.9
20260906190344 40 77 0.0 0.0 0.00 0.00 0.00 35 1011.9
20260906185839 40 117 1.6 1.6 0.00 0.00 0.00 34 1011.9
20260906185338 40 86 0.0 1.6 0.00 0.00 0.00 34 1012.1
20260906184837 40 352 3.2 3.2 0.00 0.00 0.00 34 1012.1
20260906184332 40 68 1.6 3.2 0.00 0.00 0.00 34 1012.0
20260906183828 40 114 4.8 4.8 0.00 0.00 0.00 33 1012.2
20260906183324 40 109 3.2 3.2 0.00 0.00 0.00 35 1012.3
20260906182824 40 98 1.6 1.6 0.00 0.00 0.00 35 1012.4
20260906182320 40 305 3.2 3.2 0.00 0.00 0.00 35 1012.5
20260906181819 40 36 1.6 1.6 0.00 0.00 0.00 38 1012.4
20260906181316 39 69 1.6 1.6 0.00 0.00 0.00 36 1012.7
20260906180811 38 37 0.0 1.6 0.00 0.00 0.00 34 1012.7
20260906180306 39 40 3.2 3.2 0.00 0.00 0.00 36 1012.8
20260906175803 40 50 1.6 3.2 0.00 0.00 0.00 36 1013.0
20260906175300 39 66 1.6 1.6 0.00 0.00 0.00 36 1013.1
20260906174758 39 81 1.6 1.6 0.00 0.00 0.00 36 1013.2
20260906174257 38 70 0.0 0.0 0.00 0.00 0.00 36 1013.1
20260906173753 38 346 3.2 3.2 0.00 0.00 0.00 37 1013.3
20260906173248 38 47 1.6 3.2 0.00 0.00 0.00 36 1013.4
20260906172747 38 23 1.6 3.2 0.00 0.00 0.00 37 1013.4
20260906172243 38 86 1.6 1.6 0.00 0.00 0.00 39 1013.4
20260906171737 38 60 0.0 0.0 0.00 0.00 0.00 39 1013.6
20260906171233 38 101 3.2 4.8 0.00 0.00 0.00 37 1013.6
20260906170729 37 47 3.2 4.8 0.00 0.00 0.00 40 1013.7
20260906170224 37 60 1.6 1.6 0.00 0.00 0.00 42 1013.7
20260906165720 37 57 0.0 0.0 0.00 0.00 0.00 43 1014.0
20260906165215 38 72 3.2 3.2 0.00 0.00 0.00 43 1014.1
20260906164714 38 48 1.6 1.6 0.00 0.00 0.00 43 1014.2
20260906164210 37 63 0.0 1.6 0.00 0.00 0.00 45 1014.1
20260906163705 37 103 0.0 0.0 0.00 0.00 0.00 48 1014.3
20260906163201 37 220 3.2 3.2 0.00 0.00 0.00 46 1014.2
20260906162658 37 69 1.6 1.6 0.00 0.00 0.00 46 1014.2
20260906162158 37 51 1.6 1.6 0.00 0.00 0.00 46 1014.2
20260906161653 36 56 1.6 1.6 0.00 0.00 0.00 49 1014.3
20260906161152 36 105 0.0 1.6 0.00 0.00 0.00 48 1014.2
20260906160651 36 81 1.6 1.6 0.00 0.00 0.00 48 1014.2
20260906160150 36 73 0.0 0.0 0.00 0.00 0.00 48 1014.1
20260906155647 35 57 0.0 0.0 0.00 0.00 0.00 50 1014.3
20260906155143 35 62 1.6 1.6 0.00 0.00 0.00 50 1014.2
20260906154638 35 55 0.0 0.0 0.00 0.00 0.00 52 1014.3
20260906154138 35 42 1.6 1.6 0.00 0.00 0.00 50 1014.2
20260906153637 35 51 1.6 1.6 0.00 0.00 0.00 52 1014.1
20260906153132 34 95 0.0 1.6 0.00 0.00 0.00 53 1014.2
20260906152627 34 68 0.0 0.0 0.00 0.00 0.00 55 1014.2
20260906152126 33 67 0.0 0.0 0.00 0.00 0.00 55 1014.1
20260906151621 33 56 0.0 0.0 0.00 0.00 0.00 56 1014.1
20260906151118 33 96 0.0 0.0 0.00 0.00 0.00 56 1014.0
20260906150613 33 102 1.6 1.6 0.00 0.00 0.00 55 1014.1
20260906150108 32 66 0.0 0.0 0.00 0.00 0.00 58 1014.0
20260906145606 32 85 1.6 1.6 0.00 0.00 0.00 58 1013.8
20260906145101 31 64 0.0 0.0 0.00 0.00 0.00 59 1014.0
20260906144555 31 116 1.6 1.6 0.00 0.00 0.00 60 1014.1
20260906144051 31 36 1.6 1.6 0.00 0.00 0.00 61 1014.0
20260906143546 30 115 1.6 1.6 0.00 0.00 0.00 61 1014.0
20260906143043 30 10 1.6 1.6 0.00 0.00 0.00 62 1013.8
20260906142542 30 42 0.0 0.0 0.00 0.00 0.00 63 1013.7
20260906142038 30 50 0.0 0.0 0.00 0.00 0.00 64 1013.7
20260906141537 30 43 0.0 0.0 0.00 0.00 0.00 64 1013.8
20260906141032 30 16 1.6 1.6 0.00 0.00 0.00 64 1013.7
20260906140531 28 62 0.0 1.6 0.00 0.00 0.00 65 1013.7
20260906140031 28 54 0.0 0.0 0.00 0.00 0.00 70 1013.5
20260906135528 27 52 0.0 0.0 0.00 0.00 0.00 72 1013.5
20260906135024 27 60 0.0 0.0 0.00 0.00 0.00 72 1013.3
20260906134519 27 72 0.0 0.0 0.00 0.00 0.00 73 1013.4
20260906134014 26 72 0.0 0.0 0.00 0.00 0.00 73 1013.5
20260906133510 26 69 0.0 0.0 0.00 0.00 0.00 74 1013.5
20260906133005 26 63 0.0 0.0 0.00 0.00 0.00 75 1013.5
20260906132500 26 63 0.0 0.0 0.00 0.00 0.00 76 1013.5
20260906131955 25 59 0.0 0.0 0.00 0.00 0.00 77 1013.5
20260906131451 25 61 0.0 0.0 0.00 0.00 0.00 79 1013.6
20260906130946 25 51 0.0 0.0 0.00 0.00 0.00 80 1013.5
20260906130445 25 51 0.0 0.0 0.00 0.00 0.00 82 1013.6
20260906125940 25 51 0.0 0.0 0.00 0.00 0.00 83 1013.6
20260906125438 24 51 0.0 0.0 0.00 0.00 0.00 85 1013.4
20260906124937 23 68 0.0 0.0 0.00 0.00 0.00 87 1013.4
20260906124433 23 68 0.0 0.0 0.00 0.00 0.00 88 1013.3
20260906123933 23 68 0.0 0.0 0.00 0.00 0.00 89 1013.3
20260906123432 23 68 0.0 0.0 0.00 0.00 0.00 89 1013.3
20260906122927 23 68 0.0 0.0 0.00 0.00 0.00 89 1013.3
20260906122421 23 68 0.0 0.0 0.00 0.00 0.00 90 1013.0
20260906121919 23 68 0.0 0.0 0.00 0.00 0.00 89 1013.0
20260906121414 23 68 0.0 0.0 0.00 0.00 0.00 89 1012.9
20260906120910 23 68 0.0 0.0 0.00 0.00 0.00 89 1012.8
20260906120406 23 68 0.0 0.0 0.00 0.00 0.00 89 1012.8
20260906115902 23 68 0.0 0.0 0.00 0.00 0.00 89 1012.8
20260906115357 23 68 0.0 0.0 0.00 0.00 0.00 89 1012.8
20260906114856 23 68 0.0 0.0 0.00 0.00 0.00 88 1012.8
20260906114351 23 68 0.0 0.0 0.00 0.00 0.00 88 1012.8
20260906113847 23 68 0.0 0.0 0.00 0.00 0.00 88 1012.7
20260906113345 23 68 0.0 0.0 0.00 0.00 0.00 88 1012.6
20260906112841 23 71 0.0 0.0 0.00 0.00 0.00 88 1012.5
20260906112338 23 71 0.0 0.0 0.00 0.00 0.00 88 1012.6
20260906111837 23 72 0.0 0.0 0.00 0.00 0.00 88 1012.5
20260906111337 23 70 0.0 0.0 0.00 0.00 0.00 88 1012.3
20260906110832 23 70 0.0 0.0 0.00 0.00 0.00 88 1012.6
20260906110328 23 70 0.0 0.0 0.00 0.00 0.00 88 1012.4
20260906105827 23 70 0.0 0.0 0.00 0.00 0.00 87 1012.3
20260906105323 23 70 0.0 0.0 0.00 0.00 0.00 87 1012.4
20260906104819 23 70 0.0 0.0 0.00 0.00 0.00 87 1012.5
20260906104317 23 70 0.0 0.0 0.00 0.00 0.00 87 1012.3
20260906103816 23 70 0.0 0.0 0.00 0.00 0.00 87 1012.3
20260906103314 23 70 0.0 0.0 0.00 0.00 0.00 87 1012.3
20260906102811 24 70 0.0 0.0 0.00 0.00 0.00 87 1012.4
20260906102309 24 70 0.0 0.0 0.00 0.00 0.00 87 1012.3
20260906101805 24 70 0.0 0.0 0.00 0.00 0.00 87 1012.5
20260906101300 24 70 0.0 0.0 0.00 0.00 0.00 86 1012.3
20260906100755 24 70 0.0 0.0 0.00 0.00 0.00 86 1012.2
20260906100254 24 70 0.0 0.0 0.00 0.00 0.00 85 1012.5
20260906095750 24 70 0.0 0.0 0.00 0.00 0.00 85 1012.1
20260906095245 24 70 0.0 0.0 0.00 0.00 0.00 85 1012.4
20260906094744 24 70 0.0 0.0 0.00 0.00 0.00 85 1012.3
20260906094239 23 70 0.0 0.0 0.00 0.00 0.00 86 1012.2
20260906093735 23 70 0.0 0.0 0.00 0.00 0.00 86 1012.2
20260906093231 23 70 0.0 0.0 0.00 0.00 0.00 86 1012.2
20260906092726 24 70 0.0 0.0 0.00 0.00 0.00 85 1012.1
20260906092225 24 70 0.0 0.0 0.00 0.00 0.00 86 1012.1
20260906091722 24 70 0.0 0.0 0.00 0.00 0.00 85 1012.1
20260906091218 24 70 0.0 0.0 0.00 0.00 0.00 85 1012.2
20260906090715 24 70 0.0 0.0 0.00 0.00 0.00 85 1011.9
20260906090214 24 70 0.0 0.0 0.00 0.00 0.00 84 1012.0
20260906085713 24 70 0.0 0.0 0.00 0.00 0.00 84 1012.1
20260906085212 25 70 0.0 0.0 0.00 0.00 0.00 84 1011.8
20260906084707 25 70 0.0 0.0 0.00 0.00 0.00 83 1011.9
20260906084206 25 70 0.0 0.0 0.00 0.00 0.00 83 1012.1
20260906083701 25 50 0.0 0.0 0.00 0.00 0.00 83 1011.8
20260906083156 25 59 0.0 0.0 0.00 0.00 0.00 83 1011.9
20260906082651 25 59 0.0 0.0 0.00 0.00 0.00 82 1011.7
20260906082147 25 59 0.0 0.0 0.00 0.00 0.00 82 1011.7
20260906081643 25 59 0.0 0.0 0.00 0.00 0.00 83 1011.8
20260906081138 25 66 0.0 0.0 0.00 0.00 0.00 83 1011.8
20260906080634 25 60 0.0 0.0 0.00 0.00 0.00 82 1011.8
20260906080130 25 60 0.0 0.0 0.00 0.00 0.00 82 1011.8
20260906075630 25 58 0.0 0.0 0.00 0.00 0.00 82 1011.7
20260906075124 25 72 0.0 0.0 0.00 0.00 0.00 81 1011.7
20260906074620 25 68 0.0 0.0 0.00 0.00 0.00 82 1011.7
20260906074118 25 62 0.0 0.0 0.00 0.00 0.00 82 1011.7
20260906073613 25 61 0.0 0.0 0.00 0.00 0.00 83 1011.6
20260906073109 25 61 0.0 0.0 0.00 0.00 0.00 83 1011.6
20260906072605 25 61 0.0 0.0 0.00 0.00 0.00 83 1011.6
20260906072101 25 61 0.0 0.0 0.00 0.00 0.00 82 1011.8
20260906071557 25 61 0.0 0.0 0.00 0.00 0.00 82 1011.8
20260906071056 25 61 0.0 0.0 0.00 0.00 0.00 83 1011.9
20260906070553 25 62 0.0 0.0 0.00 0.00 0.00 83 1012.0
20260906070049 25 62 0.0 0.0 0.00 0.00 0.00 83 1011.8
20260906065548 25 62 0.0 0.0 0.00 0.00 0.00 83 1011.8
20260906065044 25 62 0.0 0.0 0.00 0.00 0.00 83 1011.7
20260906064540 25 56 0.0 0.0 0.00 0.00 0.00 82 1011.8
20260906064035 25 56 0.0 0.0 0.00 0.00 0.00 81 1011.7
20260906063530 25 56 0.0 0.0 0.00 0.00 0.00 80 1011.7
20260906063026 25 56 0.0 0.0 0.00 0.00 0.00 80 1011.9
20260906062521 25 54 0.0 0.0 0.00 0.00 0.00 79 1011.8
20260906062015 25 54 0.0 0.0 0.00 0.00 0.00 78 1011.9
20260906061511 26 54 0.0 0.0 0.00 0.00 0.00 78 1011.8
20260906061010 26 54 0.0 0.0 0.00 0.00 0.00 77 1011.8
20260906060508 26 54 0.0 0.0 0.00 0.00 0.00 77 1011.8
20260906060004 26 54 0.0 0.0 0.00 0.00 0.00 76 1011.8
20260906055500 26 54 0.0 0.0 0.00 0.00 0.00 76 1011.9
20260906054955 26 53 0.0 0.0 0.00 0.00 0.00 76 1012.0
20260906054454 26 53 0.0 0.0 0.00 0.00 0.00 75 1012.0
20260906053950 26 53 0.0 0.0 0.00 0.00 0.00 75 1011.8
20260906053446 26 52 0.0 0.0 0.00 0.00 0.00 74 1011.8
20260906052942 27 52 0.0 0.0 0.00 0.00 0.00 74 1011.7
20260906052438 27 54 0.0 0.0 0.00 0.00 0.00 74 1011.6
20260906051934 26 53 1.6 1.6 0.00 0.00 0.00 75 1011.7
20260906051430 26 69 0.0 0.0 0.00 0.00 0.00 77 1011.6
20260906050925 26 69 0.0 0.0 0.00 0.00 0.00 78 1011.8
20260906050425 26 69 0.0 0.0 0.00 0.00 0.00 78 1011.8
20260906045924 26 69 0.0 0.0 0.00 0.00 0.00 77 1011.8
20260906045423 26 69 0.0 0.0 0.00 0.00 0.00 77 1011.6
20260906044920 26 70 0.0 0.0 0.00 0.00 0.00 77 1011.6
20260906044419 26 70 0.0 0.0 0.00 0.00 0.00 76 1011.6
20260906043915 27 69 1.6 1.6 0.00 0.00 0.00 75 1011.5
20260906043411 27 56 0.0 0.0 0.00 0.00 0.00 74 1011.5
20260906042906 27 56 0.0 0.0 0.00 0.00 0.00 73 1011.6
20260906042405 27 56 0.0 0.0 0.00 0.00 0.00 73 1011.7
20260906041901 27 56 0.0 0.0 0.00 0.00 0.00 72 1011.6
20260906041357 27 56 0.0 0.0 0.00 0.00 0.00 71 1011.5
20260906040856 27 56 0.0 0.0 0.00 0.00 0.00 71 1011.6
20260906040352 27 56 0.0 0.0 0.00 0.00 0.00 71 1011.6
20260906035847 27 56 0.0 0.0 0.00 0.00 0.00 72 1011.4
20260906035342 27 56 0.0 0.0 0.00 0.00 0.00 72 1011.6
20260906034838 27 56 0.0 0.0 0.00 0.00 0.00 72 1011.5
20260906034332 27 56 0.0 0.0 0.00 0.00 0.00 72 1011.5
20260906033828 27 56 0.0 0.0 0.00 0.00 0.00 70 1011.6
20260906033327 28 56 0.0 0.0 0.00 0.00 0.00 70 1011.5
20260906032824 28 56 0.0 0.0 0.00 0.00 0.00 68 1011.4
20260906032320 28 56 0.0 0.0 0.00 0.00 0.00 67 1011.3
20260906031814 28 56 0.0 0.0 0.00 0.00 0.00 65 1011.4
20260906031310 28 56 0.0 0.0 0.00 0.00 0.00 64 1011.4
20260906030810 29 56 0.0 0.0 0.00 0.00 0.00 63 1011.8
20260906030305 30 56 0.0 0.0 0.00 0.00 0.00 62 1011.5
20260906025804 30 56 0.0 0.0 0.00 0.00 0.00 62 1011.4
20260906025259 29 60 0.0 0.0 0.00 0.00 0.00 64 1011.4
20260906024758 29 58 0.0 0.0 0.00 0.00 0.00 65 1011.3
20260906024257 29 58 0.0 0.0 0.00 0.00 0.00 65 1011.2
20260906023752 30 58 0.0 0.0 0.00 0.00 0.00 64 1011.2
20260906023248 29 61 0.0 0.0 0.00 0.00 0.00 65 1011.1
20260906022744 30 57 0.0 0.0 0.00 0.00 0.00 65 1011.0
20260906022238 30 57 0.0 0.0 0.00 0.00 0.00 64 1011.0
20260906021735 30 57 0.0 0.0 0.00 0.00 0.00 63 1010.8
20260906021234 30 66 0.0 0.0 0.00 0.00 0.00 62 1010.8
20260906020729 30 65 0.0 0.0 0.00 0.00 0.00 62 1010.8
20260906020223 30 63 0.0 0.0 0.00 0.00 0.00 63 1010.9
20260906015723 30 63 0.0 0.0 0.00 0.00 0.00 62 1010.6
20260906015221 30 63 0.0 0.0 0.00 0.00 0.00 62 1010.6
20260906014716 30 62 0.0 0.0 0.00 0.00 0.00 61 1010.7
20260906014212 30 62 0.0 0.0 0.00 0.00 0.00 61 1010.5
20260906013708 31 62 0.0 0.0 0.00 0.00 0.00 59 1010.7
20260906013208 31 62 0.0 0.0 0.00 0.00 0.00 58 1010.5
20260906012703 31 62 0.0 0.0 0.00 0.00 0.00 56 1010.6
20260906012158 32 62 0.0 0.0 0.00 0.00 0.00 55 1010.5
20260906011654 32 62 0.0 0.0 0.00 0.00 0.00 54 1010.3
20260906011154 32 62 0.0 0.0 0.00 0.00 0.00 55 1010.5
20260906010649 32 62 0.0 0.0 0.00 0.00 0.00 55 1010.4
20260906010146 33 62 0.0 0.0 0.00 0.00 0.00 52 1010.3
20260906005645 33 62 0.0 0.0 0.00 0.00 0.00 51 1010.3
20260906005144 33 62 0.0 0.0 0.00 0.00 0.00 48 1010.3
20260906004643 34 63 0.0 0.0 0.00 0.00 0.00 45 1010.2
20260906004138 35 63 0.0 0.0 0.00 0.00 0.00 44 1010.4
20260906003633 35 63 0.0 0.0 0.00 0.00 0.00 41 1010.3
20260906003129 36 63 0.0 0.0 0.00 0.00 0.00 40 1010.2
20260906002624 37 61 0.0 0.0 0.00 0.00 0.00 39 1010.1
20260906002119 37 60 0.0 0.0 0.00 0.00 0.00 39 1010.2
20260906001615 37 61 0.0 0.0 0.00 0.00 0.00 39 1010.1
20260906001114 37 71 0.0 0.0 0.00 0.00 0.00 38 1010.1
20260906000610 38 45 0.0 0.0 0.00 0.00 0.00 38 1010.4
20260906000106 38 45 0.0 0.0 0.00 0.00 0.00 37 1010.1
20260905235604 37 52 0.0 0.0 0.00 0.00 0.00 39 1010.0
20260905235059 37 42 0.0 0.0 0.00 0.00 0.00 38 1010.0
20260905234555 38 45 0.0 0.0 0.00 0.00 0.00 39 1010.1
20260905234050 38 53 0.0 0.0 0.00 0.00 0.00 38 1009.8
20260905233550 38 81 0.0 0.0 0.00 0.00 0.00 37 1009.9
20260905233050 38 31 0.0 0.0 0.00 0.00 0.00 37 1009.8
20260905232545 38 32 0.0 0.0 0.00 0.00 0.00 37 1009.9
20260905232041 38 51 0.0 0.0 0.00 0.00 0.00 39 1009.9
20260905231536 38 62 1.6 1.6 0.00 0.00 0.00 38 1010.0
20260905231032 38 80 0.0 0.0 0.00 0.00 0.00 38 1009.9
20260905230531 38 53 1.6 1.6 0.00 0.00 0.00 38 1009.8
20260905230030 38 28 3.2 3.2 0.00 0.00 0.00 37 1009.8
20260905225525 38 7 3.2 4.8 0.00 0.00 0.00 37 1009.8
20260905225020 38 18 4.8 4.8 0.00 0.00 0.00 36 1009.9
20260905224515 38 32 1.6 3.2 0.00 0.00 0.00 36 1009.8
20260905224014 38 67 1.6 1.6 0.00 0.00 0.00 37 1009.8
20260905223512 38 74 0.0 1.6 0.00 0.00 0.00 36 1009.8
20260905223008 38 73 0.0 0.0 0.00 0.00 0.00 37 1009.9
20260905222508 38 118 1.6 3.2 0.00 0.00 0.00 36 1010.0
20260905222003 38 80 1.6 1.6 0.00 0.00 0.00 37 1010.0
20260905221459 38 75 1.6 3.2 0.00 0.00 0.00 36 1010.0
20260905220955 38 94 1.6 1.6 0.00 0.00 0.00 36 1010.1
20260905220451 39 85 0.0 0.0 0.00 0.00 0.00 35 1010.0
20260905215950 39 68 1.6 1.6 0.00 0.00 0.00 36 1010.0
20260905215446 39 91 1.6 1.6 0.00 0.00 0.00 36 1010.2
20260905214942 39 57 0.0 0.0 0.00 0.00 0.00 36 1010.3
20260905214438 38 18 0.0 0.0 0.00 0.00 0.00 37 1010.5
20260905213937 38 82 1.6 1.6 0.00 0.00 0.00 36 1010.5
20260905213434 38 88 1.6 1.6 0.00 0.00 0.00 36 1010.5
20260905212929 39 97 0.0 0.0 0.00 0.00 0.00 36 1010.6
20260905212424 39 60 1.6 3.2 0.00 0.00 0.00 35 1010.6
20260905211922 38 88 3.2 3.2 0.00 0.00 0.00 36 1010.5
20260905211419 38 75 0.0 0.0 0.00 0.00 0.00 37 1010.5
20260905210914 38 86 3.2 3.2 0.00 0.00 0.00 36 1010.8
20260905210408 39 46 3.2 3.2 0.00 0.00 0.00 36 1010.8
20260905205908 38 47 1.6 1.6 0.00 0.00 0.00 36 1010.8
20260905205403 38 62 1.6 1.6 0.00 0.00 0.00 36 1011.0
20260905204901 39 94 1.6 1.6 0.00 0.00 0.00 36 1010.9
20260905204358 39 66 0.0 0.0 0.00 0.00 0.00 36 1011.2
20260905203856 38 87 1.6 3.2 0.00 0.00 0.00 37 1011.2
20260905203352 38 39 1.6 1.6 0.00 0.00 0.00 36 1011.2
20260905202848 38 58 3.2 3.2 0.00 0.00 0.00 37 1011.2
20260905202342 38 342 1.6 1.6 0.00 0.00 0.00 36 1011.5
20260905201838 38 53 3.2 3.2 0.00 0.00 0.00 37 1011.5
20260905201334 38 71 1.6 1.6 0.00 0.00 0.00 40 1011.6
20260905200833 38 57 1.6 1.6 0.00 0.00 0.00 39 1011.8
20260905200330 38 102 4.8 6.4 0.00 0.00 0.00 37 1011.9
20260905195827 38 76 3.2 3.2 0.00 0.00 0.00 37 1011.8
20260905195323 38 75 1.6 1.6 0.00 0.00 0.00 38 1011.9
20260905194819 38 107 3.2 4.8 0.00 0.00 0.00 37 1012.0